Location: Marcé
(47.5801°N, 0.3280°W)
Time: 22:24:08
(UTC+01:00)

Transit 2A - Pass Details

Date: 09 December 2021
Orbit: 591 x 967 km, 66.7° (Epoch: 23 January)

Event Time Altitude Azimuth Distance (km) Brightness Sun altitude
Rises 00:10:44 0° 213° (SSW) 3,322 - -63.8°
Reaches altitude 10° 00:13:04 10° 213° (SSW) 2,447 - -63.9°
Maximum altitude 00:18:48 89° 304° (NW) 904 - -64.3°
Drops below altitude 10° 00:25:05 10° 34° (NE) 2,669 - -64.6°
Sets 00:27:43 0° 35° (NE) 3,643 - -64.7°
